Wetterdaten: Freitag, 21.08.2015
Datum Zeit Temp. A. Feuchte A. Luftdruck Regen Wind Richtung Richtung Sonnenschein ET UV Solar Taupunkt Windchill Windben Empfang
21.08.2015 00:01 13,7 C 99 % 1024,8 hPa 0,0 l/m 0,4 km/h (0 Bft) W-SW 256 0 min 0,000 mm 0,0 UV-I 0 W/m 13,5 C 13,7 C 4,0 km/h (1 Bft) 0,00 %
21.08.2015 00:06 13,7 C 99 % 1024,8 hPa 0,0 l/m 0,0 km/h (0 Bft) N 353 0 min 0,000 mm 0,0 UV-I 0 W/m 13,5 C 13,7 C 0,0 km/h (0 Bft) 0,00 %
21.08.2015 00:11 13,7 C 99 % 1024,8 hPa 0,0 l/m 1,4 km/h (1 Bft) W-NW 298 0 min 0,000 mm 0,0 UV-I 0 W/m 13,5 C 13,7 C 4,0 km/h (1 Bft) 0,00 %
21.08.2015 00:16 13,7 C 99 % 1024,8 hPa 0,0 l/m 0,0 km/h (0 Bft) NW 317 0 min 0,000 mm 0,0 UV-I 0 W/m 13,5 C 13,7 C 0,0 km/h (0 Bft) 0,00 %
21.08.2015 00:21 13,7 C 99 % 1024,9 hPa 0,0 l/m 0,4 km/h (0 Bft) W 264 0 min 0,000 mm 0,0 UV-I 0 W/m 13,5 C 13,7 C 4,0 km/h (1 Bft) 0,00 %
21.08.2015 00:26 13,6 C 99 % 1024,9 hPa 0,0 l/m 0,0 km/h (0 Bft) N-NO 16 0 min 0,000 mm 0,0 UV-I 0 W/m 13,4 C 13,6 C 0,0 km/h (0 Bft) 0,00 %
21.08.2015 00:31 13,6 C 99 % 1024,7 hPa 0,0 l/m 0,4 km/h (0 Bft) NW 308 0 min 0,000 mm 0,0 UV-I 0 W/m 13,4 C 13,6 C 4,0 km/h (1 Bft) 0,00 %
21.08.2015 00:36 13,6 C 99 % 1025,1 hPa 0,0 l/m 0,0 km/h (0 Bft) O-NO 77 0 min 0,000 mm 0,0 UV-I 0 W/m 13,4 C 13,6 C 0,0 km/h (0 Bft) 0,00 %
21.08.2015 00:41 13,5 C 99 % 1024,9 hPa 0,0 l/m 0,0 km/h (0 Bft) N-NO 28 0 min 0,000 mm 0,0 UV-I 0 W/m 13,3 C 13,5 C 0,0 km/h (0 Bft) 0,00 %
21.08.2015 00:46 13,5 C 99 % 1024,8 hPa 0,0 l/m 0,0 km/h (0 Bft) N 8 0 min 0,000 mm 0,0 UV-I 0 W/m 13,3 C 13,5 C 0,0 km/h (0 Bft) 0,00 %
21.08.2015 00:51 13,5 C 99 % 1024,9 hPa 0,0 l/m 1,8 km/h (1 Bft) N 357 0 min 0,000 mm 0,0 UV-I 0 W/m 13,3 C 13,5 C 4,0 km/h (1 Bft) 0,00 %
21.08.2015 00:56 13,5 C 98 % 1024,9 hPa 0,0 l/m 0,0 km/h (0 Bft) O-NO 64 0 min 0,000 mm 0,0 UV-I 0 W/m 13,2 C 13,5 C 0,0 km/h (0 Bft) 0,00 %
21.08.2015 01:01 13,5 C 98 % 1025,0 hPa 0,0 l/m 0,4 km/h (0 Bft) N 355 0 min 0,000 mm 0,0 UV-I 0 W/m 13,2 C 13,5 C 4,0 km/h (1 Bft) 0,00 %
21.08.2015 01:06 13,4 C 98 % 1025,0 hPa 0,0 l/m 0,7 km/h (0 Bft) N-NW 334 0 min 0,000 mm 0,0 UV-I 0 W/m 13,1 C 13,4 C 4,0 km/h (1 Bft) 0,00 %
21.08.2015 01:11 13,4 C 98 % 1025,1 hPa 0,0 l/m 0,0 km/h (0 Bft) NO 46 0 min 0,000 mm 0,0 UV-I 0 W/m 13,1 C 13,4 C 0,0 km/h (0 Bft) 0,00 %
21.08.2015 01:16 13,4 C 98 % 1025,0 hPa 0,0 l/m 0,0 km/h (0 Bft) W 278 0 min 0,000 mm 0,0 UV-I 0 W/m 13,1 C 13,4 C 0,0 km/h (0 Bft) 0,00 %
21.08.2015 01:21 13,4 C 97 % 1024,9 hPa 0,0 l/m 0,0 km/h (0 Bft) N 355 0 min 0,000 mm 0,0 UV-I 0 W/m 12,9 C 13,4 C 0,0 km/h (0 Bft) 0,00 %
21.08.2015 01:26 13,4 C 97 % 1024,8 hPa 0,0 l/m 0,0 km/h (0 Bft) N-NO 17 0 min 0,000 mm 0,0 UV-I 0 W/m 12,9 C 13,4 C 0,0 km/h (0 Bft) 0,00 %
21.08.2015 01:31 13,4 C 97 % 1024,9 hPa 0,0 l/m 0,0 km/h (0 Bft) N-NW 340 0 min 0,000 mm 0,0 UV-I 0 W/m 12,9 C 13,4 C 0,0 km/h (0 Bft) 0,00 %
21.08.2015 01:36 13,4 C 97 % 1025,0 hPa 0,0 l/m 0,0 km/h (0 Bft) N-NO 29 0 min 0,000 mm 0,0 UV-I 0 W/m 12,9 C 13,4 C 0,0 km/h (0 Bft) 0,00 %
21.08.2015 01:41 13,4 C 97 % 1025,0 hPa 0,0 l/m 1,4 km/h (1 Bft) W-SW 255 0 min 0,000 mm 0,0 UV-I 0 W/m 12,9 C 13,4 C 4,0 km/h (1 Bft) 0,00 %
21.08.2015 01:46 13,4 C 97 % 1024,9 hPa 0,0 l/m 0,0 km/h (0 Bft) W-NW 297 0 min 0,000 mm 0,0 UV-I 0 W/m 12,9 C 13,4 C 0,0 km/h (0 Bft) 0,00 %
21.08.2015 01:51 13,4 C 97 % 1024,9 hPa 0,0 l/m 0,0 km/h (0 Bft) N 349 0 min 0,000 mm 0,0 UV-I 0 W/m 12,9 C 13,4 C 0,0 km/h (0 Bft) 0,00 %
21.08.2015 01:56 13,4 C 97 % 1025,0 hPa 0,0 l/m 0,0 km/h (0 Bft) N-NO 31 0 min 0,000 mm 0,0 UV-I 0 W/m 12,9 C 13,4 C 0,0 km/h (0 Bft) 0,00 %
21.08.2015 02:01 13,4 C 97 % 1025,0 hPa 0,0 l/m 0,0 km/h (0 Bft) S 173 0 min 0,000 mm 0,0 UV-I 0 W/m 12,9 C 13,4 C 0,0 km/h (0 Bft) 0,00 %
21.08.2015 02:06 13,4 C 97 % 1025,0 hPa 0,0 l/m 0,7 km/h (0 Bft) W-SW 255 0 min 0,000 mm 0,0 UV-I 0 W/m 12,9 C 13,4 C 4,0 km/h (1 Bft) 0,00 %
21.08.2015 02:11 13,4 C 97 % 1024,9 hPa 0,0 l/m 0,0 km/h (0 Bft) N 5 0 min 0,000 mm 0,0 UV-I 0 W/m 12,9 C 13,4 C 0,0 km/h (0 Bft) 0,00 %
21.08.2015 02:16 13,4 C 97 % 1024,8 hPa 0,0 l/m 0,0 km/h (0 Bft) NW 311 0 min 0,000 mm 0,0 UV-I 0 W/m 12,9 C 13,4 C 0,0 km/h (0 Bft) 0,00 %
21.08.2015 02:21 13,5 C 97 % 1025,0 hPa 0,0 l/m 0,4 km/h (0 Bft) N-NW 333 0 min 0,000 mm 0,0 UV-I 0 W/m 13,0 C 13,5 C 4,0 km/h (1 Bft) 0,00 %
21.08.2015 02:26 13,5 C 97 % 1025,1 hPa 0,0 l/m 0,0 km/h (0 Bft) N 350 0 min 0,000 mm 0,0 UV-I 0 W/m 13,0 C 13,5 C 0,0 km/h (0 Bft) 0,00 %
21.08.2015 02:31 13,5 C 97 % 1025,0 hPa 0,0 l/m 0,4 km/h (0 Bft) SW 222 0 min 0,000 mm 0,0 UV-I 0 W/m 13,0 C 13,5 C 4,0 km/h (1 Bft) 0,00 %
21.08.2015 02:36 13,5 C 97 % 1024,9 hPa 0,0 l/m 1,4 km/h (1 Bft) W-SW 249 0 min 0,000 mm 0,0 UV-I 0 W/m 13,0 C 13,5 C 4,0 km/h (1 Bft) 0,00 %
21.08.2015 02:41 13,5 C 97 % 1024,8 hPa 0,0 l/m 2,9 km/h (1 Bft) W-NW 282 0 min 0,000 mm 0,0 UV-I 0 W/m 13,0 C 13,5 C 7,9 km/h (2 Bft) 0,00 %
21.08.2015 02:46 13,5 C 97 % 1024,8 hPa 0,0 l/m 0,0 km/h (0 Bft) O-NO 67 0 min 0,000 mm 0,0 UV-I 0 W/m 13,0 C 13,5 C 0,0 km/h (0 Bft) 0,00 %
21.08.2015 02:51 13,5 C 97 % 1024,8 hPa 0,0 l/m 0,0 km/h (0 Bft) NO 44 0 min 0,000 mm 0,0 UV-I 0 W/m 13,0 C 13,5 C 0,0 km/h (0 Bft) 0,00 %
21.08.2015 02:56 13,5 C 97 % 1024,9 hPa 0,0 l/m 0,0 km/h (0 Bft) NO 51 0 min 0,000 mm 0,0 UV-I 0 W/m 13,0 C 13,5 C 0,0 km/h (0 Bft) 0,00 %
21.08.2015 03:01 13,5 C 97 % 1024,7 hPa 0,0 l/m 0,4 km/h (0 Bft) N-NW 344 0 min 0,000 mm 0,0 UV-I 0 W/m 13,0 C 13,5 C 4,0 km/h (1 Bft) 0,00 %
21.08.2015 03:06 13,5 C 97 % 1024,6 hPa 0,0 l/m 0,0 km/h (0 Bft) NO 36 0 min 0,000 mm 0,0 UV-I 0 W/m 13,0 C 13,5 C 0,0 km/h (0 Bft) 0,00 %
21.08.2015 03:11 13,4 C 98 % 1024,8 hPa 0,0 l/m 0,0 km/h (0 Bft) N 358 0 min 0,000 mm 0,0 UV-I 0 W/m 13,1 C 13,4 C 0,0 km/h (0 Bft) 0,00 %
21.08.2015 03:16 13,4 C 98 % 1024,8 hPa 0,0 l/m 0,0 km/h (0 Bft) N-NO 30 0 min 0,000 mm 0,0 UV-I 0 W/m 13,1 C 13,4 C 0,0 km/h (0 Bft) 0,00 %
21.08.2015 03:21 13,4 C 98 % 1024,9 hPa 0,0 l/m 0,0 km/h (0 Bft) NO 41 0 min 0,000 mm 0,0 UV-I 0 W/m 13,1 C 13,4 C 0,0 km/h (0 Bft) 0,00 %
21.08.2015 03:26 13,4 C 98 % 1024,7 hPa 0,0 l/m 0,0 km/h (0 Bft) N-NO 28 0 min 0,000 mm 0,0 UV-I 0 W/m 13,1 C 13,4 C 0,0 km/h (0 Bft) 0,00 %
21.08.2015 03:31 13,4 C 98 % 1024,7 hPa 0,0 l/m 0,0 km/h (0 Bft) N 352 0 min 0,000 mm 0,0 UV-I 0 W/m 13,1 C 13,4 C 0,0 km/h (0 Bft) 0,00 %
21.08.2015 03:36 13,3 C 98 % 1024,7 hPa 0,0 l/m 0,0 km/h (0 Bft) NO 43 0 min 0,000 mm 0,0 UV-I 0 W/m 13,0 C 13,3 C 0,0 km/h (0 Bft) 0,00 %
21.08.2015 03:41 13,3 C 98 % 1024,8 hPa 0,0 l/m 0,0 km/h (0 Bft) N-NO 31 0 min 0,000 mm 0,0 UV-I 0 W/m 13,0 C 13,3 C 0,0 km/h (0 Bft) 0,00 %
21.08.2015 03:46 13,3 C 98 % 1024,7 hPa 0,0 l/m 0,0 km/h (0 Bft) NO 51 0 min 0,000 mm 0,0 UV-I 0 W/m 13,0 C 13,3 C 0,0 km/h (0 Bft) 0,00 %
21.08.2015 03:51 13,3 C 98 % 1024,8 hPa 0,0 l/m 0,0 km/h (0 Bft) N 354 0 min 0,000 mm 0,0 UV-I 0 W/m 13,0 C 13,3 C 0,0 km/h (0 Bft) 0,00 %
21.08.2015 03:56 13,2 C 98 % 1024,6 hPa 0,0 l/m 0,0 km/h (0 Bft) NO 49 0 min 0,000 mm 0,0 UV-I 0 W/m 12,9 C 13,2 C 0,0 km/h (0 Bft) 0,00 %
21.08.2015 04:01 13,2 C 98 % 1024,5 hPa 0,0 l/m 0,0 km/h (0 Bft) NO 37 0 min 0,000 mm 0,0 UV-I 0 W/m 12,9 C 13,2 C 0,0 km/h (0 Bft) 0,00 %
21.08.2015 04:06 13,2 C 98 % 1024,5 hPa 0,0 l/m 0,0 km/h (0 Bft) NW 315 0 min 0,000 mm 0,0 UV-I 0 W/m 12,9 C 13,2 C 0,0 km/h (0 Bft) 0,00 %
21.08.2015 04:11 13,2 C 98 % 1024,7 hPa 0,0 l/m 0,0 km/h (0 Bft) NO 45 0 min 0,000 mm 0,0 UV-I 0 W/m 12,9 C 13,2 C 0,0 km/h (0 Bft) 0,00 %
21.08.2015 04:16 13,3 C 98 % 1024,7 hPa 0,0 l/m 0,0 km/h (0 Bft) NO 42 0 min 0,000 mm 0,0 UV-I 0 W/m 13,0 C 13,3 C 0,0 km/h (0 Bft) 0,00 %
21.08.2015 04:21 13,3 C 98 % 1024,8 hPa 0,0 l/m 0,0 km/h (0 Bft) NO 48 0 min 0,000 mm 0,0 UV-I 0 W/m 13,0 C 13,3 C 0,0 km/h (0 Bft) 0,00 %
21.08.2015 04:26 13,3 C 98 % 1024,6 hPa 0,0 l/m 0,0 km/h (0 Bft) N 354 0 min 0,000 mm 0,0 UV-I 0 W/m 13,0 C 13,3 C 0,0 km/h (0 Bft) 0,00 %
21.08.2015 04:31 13,3 C 98 % 1024,7 hPa 0,0 l/m 0,0 km/h (0 Bft) NO 43 0 min 0,000 mm 0,0 UV-I 0 W/m 13,0 C 13,3 C 0,0 km/h (0 Bft) 0,00 %
21.08.2015 04:36 13,3 C 98 % 1024,6 hPa 0,0 l/m 0,0 km/h (0 Bft) NW 321 0 min 0,000 mm 0,0 UV-I 0 W/m 13,0 C 13,3 C 0,0 km/h (0 Bft) 0,00 %
21.08.2015 04:41 13,3 C 98 % 1024,5 hPa 0,0 l/m 0,0 km/h (0 Bft) O-NO 73 0 min 0,000 mm 0,0 UV-I 0 W/m 13,0 C 13,3 C 0,0 km/h (0 Bft) 0,00 %
21.08.2015 04:46 13,3 C 98 % 1024,4 hPa 0,0 l/m 0,0 km/h (0 Bft) N 353 0 min 0,000 mm 0,0 UV-I 0 W/m 13,0 C 13,3 C 0,0 km/h (0 Bft) 0,00 %
21.08.2015 04:51 13,3 C 99 % 1024,4 hPa 0,0 l/m 0,0 km/h (0 Bft) NO 42 0 min 0,000 mm 0,0 UV-I 0 W/m 13,1 C 13,3 C 0,0 km/h (0 Bft) 0,00 %
21.08.2015 04:56 13,3 C 99 % 1024,5 hPa 0,0 l/m 0,0 km/h (0 Bft) O-NO 61 0 min 0,000 mm 0,0 UV-I 0 W/m 13,1 C 13,3 C 0,0 km/h (0 Bft) 0,00 %
21.08.2015 05:01 13,3 C 99 % 1024,4 hPa 0,0 l/m 0,0 km/h (0 Bft) N-NO 28 0 min 0,000 mm 0,0 UV-I 0 W/m 13,1 C 13,3 C 0,0 km/h (0 Bft) 0,00 %
21.08.2015 05:06 13,3 C 99 % 1024,5 hPa 0,0 l/m 0,0 km/h (0 Bft) N-NO 30 0 min 0,000 mm 0,0 UV-I 0 W/m 13,1 C 13,3 C 0,0 km/h (0 Bft) 0,00 %
21.08.2015 05:11 13,4 C 99 % 1024,3 hPa 0,0 l/m 0,0 km/h (0 Bft) NO 47 0 min 0,000 mm 0,0 UV-I 0 W/m 13,2 C 13,4 C 0,0 km/h (0 Bft) 0,00 %
21.08.2015 05:16 13,4 C 99 % 1024,5 hPa 0,0 l/m 0,0 km/h (0 Bft) N 5 0 min 0,000 mm 0,0 UV-I 0 W/m 13,2 C 13,4 C 0,0 km/h (0 Bft) 0,00 %
21.08.2015 05:21 13,4 C 99 % 1024,5 hPa 0,0 l/m 0,0 km/h (0 Bft) NO 38 0 min 0,000 mm 0,0 UV-I 0 W/m 13,2 C 13,4 C 0,0 km/h (0 Bft) 0,00 %
21.08.2015 05:26 13,4 C 99 % 1024,7 hPa 0,0 l/m 0,0 km/h (0 Bft) NO 36 0 min 0,000 mm 0,0 UV-I 0 W/m 13,2 C 13,4 C 0,0 km/h (0 Bft) 0,00 %
21.08.2015 05:31 13,5 C 99 % 1024,5 hPa 0,0 l/m 0,0 km/h (0 Bft) NO 41 0 min 0,000 mm 0,0 UV-I 0 W/m 13,3 C 13,5 C 0,0 km/h (0 Bft) 0,00 %
21.08.2015 05:36 13,5 C 99 % 1024,5 hPa 0,0 l/m 0,0 km/h (0 Bft) N-NW 345 0 min 0,000 mm 0,0 UV-I 0 W/m 13,3 C 13,5 C 0,0 km/h (0 Bft) 0,00 %
21.08.2015 05:41 13,5 C 99 % 1024,5 hPa 0,0 l/m 0,0 km/h (0 Bft) NO 36 0 min 0,000 mm 0,0 UV-I 0 W/m 13,3 C 13,5 C 0,0 km/h (0 Bft) 0,00 %
21.08.2015 05:46 13,6 C 99 % 1024,5 hPa 0,0 l/m 0,0 km/h (0 Bft) NO 49 0 min 0,000 mm 0,0 UV-I 0 W/m 13,4 C 13,6 C 0,0 km/h (0 Bft) 0,00 %
21.08.2015 05:51 13,6 C 98 % 1024,6 hPa 0,0 l/m 0,0 km/h (0 Bft) W-NW 303 0 min 0,000 mm 0,0 UV-I 0 W/m 13,3 C 13,6 C 0,0 km/h (0 Bft) 0,00 %
21.08.2015 05:56 13,6 C 98 % 1024,7 hPa 0,0 l/m 0,0 km/h (0 Bft) NO 45 0 min 0,000 mm 0,0 UV-I 0 W/m 13,3 C 13,6 C 0,0 km/h (0 Bft) 0,00 %
21.08.2015 06:01 13,6 C 98 % 1024,6 hPa 0,0 l/m 0,0 km/h (0 Bft) NO 45 0 min 0,000 mm 0,0 UV-I 0 W/m 13,3 C 13,6 C 0,0 km/h (0 Bft) 0,00 %
21.08.2015 06:06 13,6 C 98 % 1024,7 hPa 0,0 l/m 0,0 km/h (0 Bft) NW 310 0 min 0,000 mm 0,0 UV-I 0 W/m 13,3 C 13,6 C 0,0 km/h (0 Bft) 0,00 %
21.08.2015 06:11 13,6 C 98 % 1024,7 hPa 0,0 l/m 0,0 km/h (0 Bft) N-NO 13 0 min 0,000 mm 0,0 UV-I 0 W/m 13,3 C 13,6 C 0,0 km/h (0 Bft) 0,00 %
21.08.2015 06:16 13,6 C 98 % 1024,8 hPa 0,0 l/m 0,0 km/h (0 Bft) NO 37 0 min 0,000 mm 0,0 UV-I 0 W/m 13,3 C 13,6 C 0,0 km/h (0 Bft) 0,00 %
21.08.2015 06:21 13,6 C 98 % 1024,8 hPa 0,0 l/m 0,0 km/h (0 Bft) N 356 0 min 0,000 mm 0,0 UV-I 0 W/m 13,3 C 13,6 C 0,0 km/h (0 Bft) 0,00 %
21.08.2015 06:26 13,6 C 98 % 1024,9 hPa 0,0 l/m 0,0 km/h (0 Bft) NO 40 0 min 0,000 mm 0,0 UV-I 0 W/m 13,3 C 13,6 C 0,0 km/h (0 Bft) 0,00 %
21.08.2015 06:31 13,6 C 98 % 1024,9 hPa 0,0 l/m 0,0 km/h (0 Bft) O-NO 74 0 min 0,000 mm 0,0 UV-I 0 W/m 13,3 C 13,6 C 0,0 km/h (0 Bft) 0,00 %
21.08.2015 06:36 13,6 C 98 % 1024,9 hPa 0,0 l/m 0,0 km/h (0 Bft) N-NO 21 0 min 0,000 mm 0,0 UV-I 4 W/m 13,3 C 13,6 C 0,0 km/h (0 Bft) 0,00 %
21.08.2015 06:41 13,6 C 98 % 1024,8 hPa 0,0 l/m 0,0 km/h (0 Bft) NO 42 0 min 0,000 mm 0,0 UV-I 5 W/m 13,3 C 13,6 C 0,0 km/h (0 Bft) 0,00 %
21.08.2015 06:46 13,6 C 98 % 1025,0 hPa 0,0 l/m 0,0 km/h (0 Bft) NO 41 0 min 0,000 mm 0,0 UV-I 7 W/m 13,3 C 13,6 C 0,0 km/h (0 Bft) 0,00 %
21.08.2015 06:51 13,6 C 98 % 1025,0 hPa 0,0 l/m 0,0 km/h (0 Bft) N-NO 25 0 min 0,000 mm 0,0 UV-I 11 W/m 13,3 C 13,6 C 0,0 km/h (0 Bft) 0,00 %
21.08.2015 06:56 13,6 C 97 % 1024,9 hPa 0,0 l/m 0,0 km/h (0 Bft) NO 45 0 min 0,000 mm 0,0 UV-I 18 W/m 13,1 C 13,6 C 0,0 km/h (0 Bft) 0,00 %
21.08.2015 07:01 13,6 C 97 % 1024,9 hPa 0,0 l/m 0,0 km/h (0 Bft) N-NO 30 0 min 0,000 mm 0,0 UV-I 23 W/m 13,1 C 13,6 C 0,0 km/h (0 Bft) 0,00 %
21.08.2015 07:06 13,7 C 97 % 1024,9 hPa 0,0 l/m 0,0 km/h (0 Bft) NO 47 0 min 0,000 mm 0,0 UV-I 25 W/m 13,2 C 13,7 C 0,0 km/h (0 Bft) 0,00 %
21.08.2015 07:11 13,7 C 97 % 1024,9 hPa 0,0 l/m 0,0 km/h (0 Bft) O-NO 61 0 min 0,000 mm 0,0 UV-I 30 W/m 13,2 C 13,7 C 0,0 km/h (0 Bft) 0,00 %
21.08.2015 07:16 13,8 C 97 % 1024,8 hPa 0,0 l/m 0,0 km/h (0 Bft) NO 39 0 min 0,000 mm 0,0 UV-I 32 W/m 13,3 C 13,8 C 0,0 km/h (0 Bft) 0,00 %
21.08.2015 07:21 13,8 C 97 % 1024,9 hPa 0,0 l/m 0,0 km/h (0 Bft) NO 55 0 min 0,000 mm 0,0 UV-I 29 W/m 13,3 C 13,8 C 0,0 km/h (0 Bft) 0,00 %
21.08.2015 07:26 13,9 C 96 % 1025,2 hPa 0,0 l/m 0,0 km/h (0 Bft) N-NO 33 0 min 0,000 mm 0,0 UV-I 31 W/m 13,3 C 13,9 C 0,0 km/h (0 Bft) 0,00 %
21.08.2015 07:31 13,9 C 96 % 1025,1 hPa 0,0 l/m 0,0 km/h (0 Bft) N-NW 348 0 min 0,000 mm 0,0 UV-I 34 W/m 13,3 C 13,9 C 0,0 km/h (0 Bft) 0,00 %
21.08.2015 07:36 14,0 C 96 % 1025,0 hPa 0,0 l/m 0,0 km/h (0 Bft) NO 43 0 min 0,000 mm 0,0 UV-I 40 W/m 13,4 C 14,0 C 0,0 km/h (0 Bft) 0,00 %
21.08.2015 07:41 14,0 C 96 % 1025,1 hPa 0,0 l/m 0,0 km/h (0 Bft) NO 38 0 min 0,000 mm 0,0 UV-I 44 W/m 13,4 C 14,0 C 0,0 km/h (0 Bft) 0,00 %
21.08.2015 07:47 14,0 C 96 % 1025,1 hPa 0,0 l/m 0,0 km/h (0 Bft) NO 45 0 min 0,000 mm 0,0 UV-I 48 W/m 13,4 C 14,0 C 0,0 km/h (0 Bft) 0,00 %
21.08.2015 07:52 14,0 C 96 % 1025,1 hPa 0,0 l/m 0,0 km/h (0 Bft) NO 49 0 min 0,000 mm 0,0 UV-I 54 W/m 13,4 C 14,0 C 0,0 km/h (0 Bft) 0,00 %
21.08.2015 07:57 14,0 C 95 % 1025,2 hPa 0,0 l/m 0,0 km/h (0 Bft) N-NW 347 0 min 0,000 mm 0,0 UV-I 59 W/m 13,2 C 14,0 C 0,0 km/h (0 Bft) 0,00 %
21.08.2015 08:02 14,0 C 95 % 1025,1 hPa 0,0 l/m 0,0 km/h (0 Bft) N 352 0 min 0,000 mm 0,0 UV-I 64 W/m 13,2 C 14,0 C 0,0 km/h (0 Bft) 0,00 %
21.08.2015 08:07 14,0 C 95 % 1025,0 hPa 0,0 l/m 0,0 km/h (0 Bft) N 356 0 min 0,000 mm 0,0 UV-I 68 W/m 13,2 C 14,0 C 0,0 km/h (0 Bft) 0,00 %
21.08.2015 08:12 14,0 C 95 % 1025,1 hPa 0,0 l/m 0,0 km/h (0 Bft) NO 44 0 min 0,000 mm 0,0 UV-I 73 W/m 13,2 C 14,0 C 0,0 km/h (0 Bft) 0,00 %
21.08.2015 08:17 14,1 C 94 % 1025,2 hPa 0,0 l/m 0,0 km/h (0 Bft) O-NO 65 0 min 0,000 mm 0,0 UV-I 81 W/m 13,1 C 14,1 C 0,0 km/h (0 Bft) 0,00 %
21.08.2015 08:22 14,1 C 94 % 1025,2 hPa 0,0 l/m 0,0 km/h (0 Bft) NO 44 0 min 0,000 mm 0,0 UV-I 92 W/m 13,1 C 14,1 C 0,0 km/h (0 Bft) 0,00 %
21.08.2015 08:27 14,1 C 94 % 1025,1 hPa 0,0 l/m 0,0 km/h (0 Bft) N 350 0 min 0,000 mm 1,0 UV-I 105 W/m 13,1 C 14,1 C 0,0 km/h (0 Bft) 0,00 %
21.08.2015 08:32 14,1 C 93 % 1025,2 hPa 0,0 l/m 0,0 km/h (0 Bft) N-NO 32 0 min 0,000 mm 1,0 UV-I 114 W/m 13,0 C 14,1 C 0,0 km/h (0 Bft) 0,00 %
21.08.2015 08:37 14,2 C 93 % 1025,2 hPa 0,0 l/m 0,0 km/h (0 Bft) O-NO 61 0 min 0,000 mm 1,0 UV-I 120 W/m 13,1 C 14,2 C 0,0 km/h (0 Bft) 0,00 %
21.08.2015 08:42 14,3 C 93 % 1025,2 hPa 0,0 l/m 0,0 km/h (0 Bft) NO 48 0 min 0,000 mm 1,0 UV-I 125 W/m 13,2 C 14,3 C 0,0 km/h (0 Bft) 0,00 %
21.08.2015 08:47 14,4 C 92 % 1025,2 hPa 0,0 l/m 0,4 km/h (0 Bft) W-NW 295 0 min 0,000 mm 1,0 UV-I 132 W/m 13,1 C 14,4 C 4,0 km/h (1 Bft) 0,00 %
21.08.2015 08:52 14,5 C 92 % 1025,2 hPa 0,0 l/m 0,0 km/h (0 Bft) W-NW 289 0 min 0,000 mm 1,0 UV-I 142 W/m 13,2 C 14,5 C 0,0 km/h (0 Bft) 0,00 %
21.08.2015 08:57 14,6 C 91 % 1025,2 hPa 0,0 l/m 0,0 km/h (0 Bft) O-NO 58 0 min 0,000 mm 1,0 UV-I 152 W/m 13,1 C 14,6 C 0,0 km/h (0 Bft) 0,00 %
21.08.2015 09:02 14,6 C 91 % 1025,2 hPa 0,0 l/m 0,0 km/h (0 Bft) NO 43 0 min 0,000 mm 1,0 UV-I 171 W/m 13,1 C 14,6 C 0,0 km/h (0 Bft) 0,00 %
21.08.2015 09:07 14,8 C 90 % 1025,1 hPa 0,0 l/m 0,0 km/h (0 Bft) NW 309 0 min 0,000 mm 1,0 UV-I 185 W/m 13,2 C 14,8 C 0,0 km/h (0 Bft) 0,00 %
21.08.2015 09:12 15,0 C 89 % 1025,1 hPa 0,0 l/m 0,0 km/h (0 Bft) N-NO 22 0 min 0,000 mm 1,0 UV-I 196 W/m 13,2 C 15,0 C 0,0 km/h (0 Bft) 0,00 %
21.08.2015 09:17 15,2 C 88 % 1025,3 hPa 0,0 l/m 0,4 km/h (0 Bft) O-NO 68 0 min 0,000 mm 1,0 UV-I 202 W/m 13,2 C 15,2 C 4,0 km/h (1 Bft) 0,00 %
21.08.2015 09:22 15,3 C 86 % 1025,3 hPa 0,0 l/m 0,4 km/h (0 Bft) W-NW 296 0 min 0,000 mm 1,0 UV-I 212 W/m 13,0 C 15,3 C 4,0 km/h (1 Bft) 0,00 %
21.08.2015 09:27 15,4 C 86 % 1025,4 hPa 0,0 l/m 0,0 km/h (0 Bft) NO 52 0 min 0,000 mm 1,0 UV-I 230 W/m 13,1 C 15,4 C 0,0 km/h (0 Bft) 0,00 %
21.08.2015 09:32 15,6 C 85 % 1025,4 hPa 0,0 l/m 0,7 km/h (0 Bft) W-NW 290 0 min 0,000 mm 1,0 UV-I 255 W/m 13,1 C 15,6 C 4,0 km/h (1 Bft) 0,00 %
21.08.2015 09:37 15,8 C 83 % 1025,2 hPa 0,0 l/m 0,0 km/h (0 Bft) NO 36 0 min 0,000 mm 1,0 UV-I 293 W/m 12,9 C 15,8 C 0,0 km/h (0 Bft) 0,00 %
21.08.2015 09:42 16,0 C 82 % 1025,2 hPa 0,0 l/m 1,8 km/h (1 Bft) W 263 5 min 0,000 mm 1,0 UV-I 326 W/m 12,9 C 16,0 C 4,0 km/h (1 Bft) 0,00 %
21.08.2015 09:47 16,2 C 81 % 1025,4 hPa 0,0 l/m 0,0 km/h (0 Bft) N-NO 25 5 min 0,000 mm 1,0 UV-I 360 W/m 12,9 C 16,2 C 0,0 km/h (0 Bft) 0,00 %
21.08.2015 09:52 16,7 C 82 % 1025,4 hPa 0,0 l/m 0,0 km/h (0 Bft) NO 53 5 min 0,000 mm 1,0 UV-I 398 W/m 13,6 C 16,7 C 0,0 km/h (0 Bft) 0,00 %
21.08.2015 09:57 17,3 C 78 % 1025,2 hPa 0,0 l/m 0,7 km/h (0 Bft) W-NW 282 5 min 0,000 mm 1,0 UV-I 330 W/m 13,4 C 17,3 C 4,0 km/h (1 Bft) 0,00 %
21.08.2015 10:02 17,6 C 76 % 1025,3 hPa 0,0 l/m 0,0 km/h (0 Bft) N-NO 28 0 min 0,000 mm 1,0 UV-I 293 W/m 13,3 C 17,6 C 0,0 km/h (0 Bft) 0,00 %
21.08.2015 10:07 17,7 C 76 % 1025,4 hPa 0,0 l/m 0,0 km/h (0 Bft) NO 40 0 min 0,000 mm 1,0 UV-I 266 W/m 13,4 C 17,7 C 0,0 km/h (0 Bft) 0,00 %
21.08.2015 10:12 17,7 C 77 % 1025,4 hPa 0,0 l/m 4,7 km/h (1 Bft) W-NW 292 0 min 0,000 mm 1,0 UV-I 292 W/m 13,6 C 17,7 C 7,9 km/h (2 Bft) 0,00 %
21.08.2015 10:17 17,6 C 77 % 1025,3 hPa 0,0 l/m 0,0 km/h (0 Bft) N 351 0 min 0,000 mm 1,0 UV-I 283 W/m 13,5 C 17,6 C 0,0 km/h (0 Bft) 0,00 %
21.08.2015 10:22 17,6 C 75 % 1025,4 hPa 0,0 l/m 0,4 km/h (0 Bft) N 354 0 min 0,000 mm 1,0 UV-I 273 W/m 13,1 C 17,6 C 4,0 km/h (1 Bft) 0,00 %
21.08.2015 10:27 17,5 C 76 % 1025,5 hPa 0,0 l/m 0,0 km/h (0 Bft) N-NW 342 0 min 0,000 mm 1,0 UV-I 265 W/m 13,2 C 17,5 C 0,0 km/h (0 Bft) 0,00 %
21.08.2015 10:32 17,5 C 76 % 1025,4 hPa 0,0 l/m 0,0 km/h (0 Bft) N 350 0 min 0,000 mm 1,0 UV-I 268 W/m 13,2 C 17,5 C 0,0 km/h (0 Bft) 0,00 %
21.08.2015 10:37 17,6 C 76 % 1025,5 hPa 0,0 l/m 0,0 km/h (0 Bft) NO 36 0 min 0,000 mm 1,0 UV-I 281 W/m 13,3 C 17,6 C 0,0 km/h (0 Bft) 0,00 %
21.08.2015 10:42 17,8 C 73 % 1025,3 hPa 0,0 l/m 0,0 km/h (0 Bft) NO 36 0 min 0,000 mm 1,0 UV-I 314 W/m 12,9 C 17,8 C 0,0 km/h (0 Bft) 0,00 %
21.08.2015 10:47 18,1 C 72 % 1025,4 hPa 0,0 l/m 0,0 km/h (0 Bft) N 354 0 min 0,000 mm 2,0 UV-I 346 W/m 13,0 C 18,1 C 0,0 km/h (0 Bft) 0,00 %
21.08.2015 10:52 18,2 C 73 % 1025,4 hPa 0,0 l/m 0,7 km/h (0 Bft) N-NW 330 0 min 0,000 mm 2,0 UV-I 330 W/m 13,3 C 18,2 C 4,0 km/h (1 Bft) 0,00 %
21.08.2015 10:57 18,2 C 72 % 1025,4 hPa 0,0 l/m 2,2 km/h (1 Bft) W 266 0 min 0,000 mm 2,0 UV-I 361 W/m 13,1 C 18,2 C 4,0 km/h (1 Bft) 0,00 %
21.08.2015 11:02 18,1 C 73 % 1025,5 hPa 0,0 l/m 0,0 km/h (0 Bft) N 349 0 min 0,000 mm 2,0 UV-I 362 W/m 13,2 C 18,1 C 0,0 km/h (0 Bft) 0,00 %
21.08.2015 11:07 18,2 C 73 % 1025,4 hPa 0,0 l/m 0,7 km/h (0 Bft) N 354 0 min 0,000 mm 2,0 UV-I 345 W/m 13,3 C 18,2 C 4,0 km/h (1 Bft) 0,00 %
21.08.2015 11:12 18,5 C 72 % 1025,3 hPa 0,0 l/m 0,0 km/h (0 Bft) N-NW 339 0 min 0,000 mm 2,0 UV-I 358 W/m 13,4 C 18,5 C 0,0 km/h (0 Bft) 0,00 %
21.08.2015 11:17 18,7 C 71 % 1025,3 hPa 0,0 l/m 0,0 km/h (0 Bft) N 355 5 min 0,000 mm 2,0 UV-I 420 W/m 13,3 C 18,7 C 0,0 km/h (0 Bft) 0,00 %
21.08.2015 11:22 19,0 C 68 % 1025,2 hPa 0,0 l/m 0,0 km/h (0 Bft) NO 40 0 min 0,000 mm 2,0 UV-I 360 W/m 13,0 C 19,0 C 0,0 km/h (0 Bft) 0,00 %
21.08.2015 11:27 19,3 C 69 % 1025,2 hPa 0,0 l/m 0,0 km/h (0 Bft) N-NW 344 0 min 0,000 mm 2,0 UV-I 347 W/m 13,5 C 19,3 C 0,0 km/h (0 Bft) 0,00 %
21.08.2015 11:32 19,5 C 68 % 1025,4 hPa 0,0 l/m 0,0 km/h (0 Bft) NO 52 0 min 0,000 mm 2,0 UV-I 353 W/m 13,4 C 19,5 C 0,0 km/h (0 Bft) 0,00 %
21.08.2015 11:37 19,6 C 66 % 1025,2 hPa 0,0 l/m 0,0 km/h (0 Bft) O-NO 65 5 min 0,000 mm 2,0 UV-I 457 W/m 13,1 C 19,6 C 0,0 km/h (0 Bft) 0,00 %
21.08.2015 11:42 19,9 C 64 % 1025,4 hPa 0,0 l/m 0,0 km/h (0 Bft) N 2 0 min 0,000 mm 2,0 UV-I 403 W/m 12,9 C 19,9 C 0,0 km/h (0 Bft) 0,00 %
21.08.2015 11:47 20,1 C 65 % 1025,1 hPa 0,0 l/m 0,0 km/h (0 Bft) NW 319 5 min 0,000 mm 3,0 UV-I 653 W/m 13,3 C 20,1 C 0,0 km/h (0 Bft) 0,00 %
21.08.2015 11:52 20,4 C 62 % 1025,3 hPa 0,0 l/m 0,0 km/h (0 Bft) NO 39 5 min 0,000 mm 3,0 UV-I 594 W/m 12,9 C 20,4 C 0,0 km/h (0 Bft) 0,00 %
21.08.2015 11:57 20,7 C 61 % 1025,2 hPa 0,0 l/m 1,8 km/h (1 Bft) SO 130 0 min 0,000 mm 2,0 UV-I 323 W/m 12,9 C 20,7 C 4,0 km/h (1 Bft) 0,00 %
21.08.2015 12:02 20,4 C 62 % 1025,1 hPa 0,0 l/m 1,8 km/h (1 Bft) NW 320 0 min 0,000 mm 2,0 UV-I 312 W/m 12,9 C 20,4 C 4,0 km/h (1 Bft) 0,00 %
21.08.2015 12:07 19,9 C 64 % 1025,1 hPa 0,0 l/m 2,2 km/h (1 Bft) W-SW 256 5 min 0,000 mm 3,0 UV-I 742 W/m 12,9 C 19,9 C 4,0 km/h (1 Bft) 0,00 %
21.08.2015 12:12 19,9 C 65 % 1025,0 hPa 0,0 l/m 0,0 km/h (0 Bft) N-NO 22 5 min 0,000 mm 3,0 UV-I 671 W/m 13,1 C 19,9 C 0,0 km/h (0 Bft) 0,00 %
21.08.2015 12:17 20,3 C 61 % 1024,9 hPa 0,0 l/m 0,7 km/h (0 Bft) W 273 0 min 0,000 mm 2,0 UV-I 344 W/m 12,5 C 20,3 C 4,0 km/h (1 Bft) 0,00 %
21.08.2015 12:22 20,8 C 61 % 1024,9 hPa 0,0 l/m 1,4 km/h (1 Bft) W-SW 254 0 min 0,000 mm 2,0 UV-I 386 W/m 13,0 C 20,8 C 4,0 km/h (1 Bft) 0,00 %
21.08.2015 12:27 20,6 C 62 % 1024,9 hPa 0,0 l/m 0,0 km/h (0 Bft) O-NO 65 0 min 0,000 mm 2,0 UV-I 378 W/m 13,1 C 20,6 C 0,0 km/h (0 Bft) 0,00 %
21.08.2015 12:32 20,4 C 60 % 1024,9 hPa 0,0 l/m 0,0 km/h (0 Bft) N 7 0 min 0,000 mm 2,0 UV-I 359 W/m 12,4 C 20,4 C 0,0 km/h (0 Bft) 0,00 %
21.08.2015 12:37 20,4 C 61 % 1025,0 hPa 0,0 l/m 0,0 km/h (0 Bft) NO 37 0 min 0,000 mm 1,0 UV-I 273 W/m 12,6 C 20,4 C 0,0 km/h (0 Bft) 0,00 %
21.08.2015 12:42 20,5 C 63 % 1025,0 hPa 0,0 l/m 1,4 km/h (1 Bft) N-NW 335 0 min 0,000 mm 1,0 UV-I 243 W/m 13,2 C 20,5 C 4,0 km/h (1 Bft) 0,00 %
21.08.2015 12:47 20,2 C 62 % 1024,8 hPa 0,0 l/m 0,0 km/h (0 Bft) N 6 0 min 0,000 mm 1,0 UV-I 235 W/m 12,7 C 20,2 C 0,0 km/h (0 Bft) 0,00 %
21.08.2015 12:52 19,9 C 65 % 1024,7 hPa 0,0 l/m 0,0 km/h (0 Bft) N-NO 33 0 min 0,000 mm 1,0 UV-I 200 W/m 13,1 C 19,9 C 0,0 km/h (0 Bft) 0,00 %
21.08.2015 12:57 19,5 C 66 % 1025,0 hPa 0,0 l/m 0,0 km/h (0 Bft) NO 48 0 min 0,000 mm 1,0 UV-I 174 W/m 13,0 C 19,5 C 0,0 km/h (0 Bft) 0,00 %
21.08.2015 13:02 19,0 C 69 % 1024,8 hPa 0,0 l/m 3,2 km/h (1 Bft) W 260 0 min 0,000 mm 1,0 UV-I 182 W/m 13,2 C 19,0 C 4,0 km/h (1 Bft) 0,00 %
21.08.2015 13:07 18,9 C 68 % 1024,9 hPa 0,0 l/m 0,0 km/h (0 Bft) NO 47 0 min 0,000 mm 1,0 UV-I 188 W/m 12,9 C 18,9 C 0,0 km/h (0 Bft) 0,00 %
21.08.2015 13:12 18,8 C 68 % 1024,9 hPa 0,0 l/m 0,0 km/h (0 Bft) N-NW 338 0 min 0,000 mm 1,0 UV-I 205 W/m 12,8 C 18,8 C 0,0 km/h (0 Bft) 0,00 %
21.08.2015 13:17 18,9 C 68 % 1024,8 hPa 0,0 l/m 0,0 km/h (0 Bft) N 355 0 min 0,000 mm 1,0 UV-I 209 W/m 12,9 C 18,9 C 0,0 km/h (0 Bft) 0,00 %
21.08.2015 13:22 19,0 C 68 % 1024,9 hPa 0,0 l/m 0,0 km/h (0 Bft) N-NO 25 0 min 0,000 mm 1,0 UV-I 210 W/m 13,0 C 19,0 C 0,0 km/h (0 Bft) 0,00 %
21.08.2015 13:27 19,2 C 66 % 1024,8 hPa 0,0 l/m 0,0 km/h (0 Bft) N 10 0 min 0,000 mm 1,0 UV-I 218 W/m 12,7 C 19,2 C 0,0 km/h (0 Bft) 0,00 %
21.08.2015 13:32 19,3 C 67 % 1024,8 hPa 0,0 l/m 0,0 km/h (0 Bft) N-NO 33 0 min 0,000 mm 1,0 UV-I 232 W/m 13,0 C 19,3 C 0,0 km/h (0 Bft) 0,00 %
21.08.2015 13:37 19,3 C 66 % 1024,8 hPa 0,0 l/m 0,0 km/h (0 Bft) NO 36 0 min 0,000 mm 1,0 UV-I 258 W/m 12,8 C 19,3 C 0,0 km/h (0 Bft) 0,00 %
21.08.2015 13:42 19,4 C 67 % 1024,8 hPa 0,0 l/m 0,0 km/h (0 Bft) N-NO 25 0 min 0,000 mm 1,0 UV-I 310 W/m 13,1 C 19,4 C 0,0 km/h (0 Bft) 0,00 %
21.08.2015 13:47 19,4 C 66 % 1024,7 hPa 0,0 l/m 0,0 km/h (0 Bft) N-NO 27 0 min 0,000 mm 2,0 UV-I 320 W/m 12,9 C 19,4 C 0,0 km/h (0 Bft) 0,00 %
21.08.2015 13:52 19,6 C 65 % 1024,4 hPa 0,0 l/m 0,0 km/h (0 Bft) N 353 0 min 0,000 mm 2,0 UV-I 360 W/m 12,8 C 19,6 C 0,0 km/h (0 Bft) 0,00 %
21.08.2015 13:57 19,9 C 63 % 1024,5 hPa 0,0 l/m 0,0 km/h (0 Bft) N-NW 340 0 min 0,000 mm 2,0 UV-I 366 W/m 12,6 C 19,9 C 0,0 km/h (0 Bft) 0,00 %
21.08.2015 14:02 20,2 C 62 % 1024,6 hPa 0,0 l/m 0,0 km/h (0 Bft) N-NW 344 0 min 0,000 mm 2,0 UV-I 376 W/m 12,7 C 20,2 C 0,0 km/h (0 Bft) 0,00 %
21.08.2015 14:07 20,6 C 59 % 1024,5 hPa 0,0 l/m 0,0 km/h (0 Bft) NO 53 0 min 0,000 mm 2,0 UV-I 370 W/m 12,3 C 20,6 C 0,0 km/h (0 Bft) 0,00 %
21.08.2015 14:12 20,9 C 59 % 1024,4 hPa 0,0 l/m 0,0 km/h (0 Bft) N-NO 31 0 min 0,000 mm 2,0 UV-I 418 W/m 12,6 C 20,9 C 0,0 km/h (0 Bft) 0,00 %
21.08.2015 14:17 21,2 C 58 % 1024,4 hPa 0,0 l/m 0,0 km/h (0 Bft) W-NW 300 5 min 0,000 mm 2,0 UV-I 515 W/m 12,6 C 21,2 C 0,0 km/h (0 Bft) 0,00 %
21.08.2015 14:22 21,5 C 61 % 1024,4 hPa 0,0 l/m 0,0 km/h (0 Bft) N 350 5 min 0,000 mm 2,0 UV-I 489 W/m 13,7 C 21,5 C 0,0 km/h (0 Bft) 0,00 %
21.08.2015 14:27 21,6 C 58 % 1024,4 hPa 0,0 l/m 0,0 km/h (0 Bft) NO 44 0 min 0,000 mm 2,0 UV-I 373 W/m 13,0 C 21,6 C 0,0 km/h (0 Bft) 0,00 %
21.08.2015 14:32 21,7 C 56 % 1024,5 hPa 0,0 l/m 0,0 km/h (0 Bft) NO 43 0 min 0,000 mm 1,0 UV-I 314 W/m 12,5 C 21,7 C 0,0 km/h (0 Bft) 0,00 %
21.08.2015 14:37 21,7 C 56 % 1024,3 hPa 0,0 l/m 0,0 km/h (0 Bft) NO 48 0 min 0,000 mm 1,0 UV-I 293 W/m 12,5 C 21,7 C 0,0 km/h (0 Bft) 0,00 %
21.08.2015 14:42 21,8 C 56 % 1024,4 hPa 0,0 l/m 0,0 km/h (0 Bft) N-NO 30 0 min 0,000 mm 1,0 UV-I 292 W/m 12,6 C 21,8 C 0,0 km/h (0 Bft) 0,00 %
21.08.2015 14:47 21,8 C 55 % 1024,3 hPa 0,0 l/m 0,0 km/h (0 Bft) N 352 0 min 0,000 mm 1,0 UV-I 269 W/m 12,4 C 21,8 C 0,0 km/h (0 Bft) 0,00 %
21.08.2015 14:52 21,7 C 56 % 1024,4 hPa 0,0 l/m 0,0 km/h (0 Bft) NO 43 0 min 0,000 mm 1,0 UV-I 260 W/m 12,5 C 21,7 C 0,0 km/h (0 Bft) 0,00 %
21.08.2015 14:57 21,6 C 56 % 1024,3 hPa 0,0 l/m 0,4 km/h (0 Bft) N-NW 346 0 min 0,000 mm 1,0 UV-I 263 W/m 12,4 C 21,6 C 4,0 km/h (1 Bft) 0,00 %
21.08.2015 15:02 21,4 C 55 % 1024,2 hPa 0,0 l/m 0,0 km/h (0 Bft) N 353 0 min 0,000 mm 1,0 UV-I 275 W/m 12,0 C 21,4 C 0,0 km/h (0 Bft) 0,00 %
21.08.2015 15:07 21,3 C 53 % 1024,1 hPa 0,0 l/m 0,0 km/h (0 Bft) N 355 0 min 0,000 mm 1,0 UV-I 290 W/m 11,3 C 21,3 C 0,0 km/h (0 Bft) 0,00 %
21.08.2015 15:12 21,3 C 53 % 1023,9 hPa 0,0 l/m 0,7 km/h (0 Bft) N 352 0 min 0,000 mm 1,0 UV-I 309 W/m 11,3 C 21,3 C 4,0 km/h (1 Bft) 0,00 %
21.08.2015 15:17 21,3 C 51 % 1024,3 hPa 0,0 l/m 0,0 km/h (0 Bft) N 1 0 min 0,000 mm 1,0 UV-I 301 W/m 10,7 C 21,3 C 0,0 km/h (0 Bft) 0,00 %
21.08.2015 15:22 21,4 C 50 % 1024,1 hPa 0,0 l/m 0,0 km/h (0 Bft) NO 39 0 min 0,000 mm 1,0 UV-I 316 W/m 10,5 C 21,4 C 0,0 km/h (0 Bft) 0,00 %
21.08.2015 15:27 21,5 C 52 % 1024,2 hPa 0,0 l/m 0,0 km/h (0 Bft) NO 52 0 min 0,000 mm 2,0 UV-I 336 W/m 11,2 C 21,5 C 0,0 km/h (0 Bft) 0,00 %
21.08.2015 15:32 21,8 C 51 % 1024,0 hPa 0,0 l/m 0,0 km/h (0 Bft) NO 47 0 min 0,000 mm 2,0 UV-I 333 W/m 11,2 C 21,8 C 0,0 km/h (0 Bft) 0,00 %
21.08.2015 15:37 21,9 C 54 % 1024,1 hPa 0,0 l/m 1,4 km/h (1 Bft) W 281 0 min 0,000 mm 2,0 UV-I 317 W/m 12,2 C 21,9 C 4,0 km/h (1 Bft) 0,00 %
21.08.2015 15:42 21,8 C 53 % 1024,0 hPa 0,0 l/m 0,0 km/h (0 Bft) NO 38 0 min 0,000 mm 1,0 UV-I 299 W/m 11,8 C 21,8 C 0,0 km/h (0 Bft) 0,00 %
21.08.2015 15:47 21,5 C 54 % 1024,1 hPa 0,0 l/m 0,0 km/h (0 Bft) NO 41 0 min 0,000 mm 2,0 UV-I 306 W/m 11,8 C 21,5 C 0,0 km/h (0 Bft) 0,00 %
21.08.2015 15:52 21,5 C 51 % 1024,1 hPa 0,0 l/m 0,0 km/h (0 Bft) NO 40 0 min 0,000 mm 2,0 UV-I 307 W/m 10,9 C 21,5 C 0,0 km/h (0 Bft) 0,00 %
21.08.2015 15:57 21,6 C 53 % 1024,0 hPa 0,0 l/m 0,0 km/h (0 Bft) N 352 0 min 0,000 mm 1,0 UV-I 271 W/m 11,6 C 21,6 C 0,0 km/h (0 Bft) 0,00 %
21.08.2015 16:02 21,6 C 55 % 1024,0 hPa 0,0 l/m 0,0 km/h (0 Bft) N-NW 345 0 min 0,000 mm 1,0 UV-I 269 W/m 12,2 C 21,6 C 0,0 km/h (0 Bft) 0,00 %
21.08.2015 16:07 21,4 C 53 % 1023,9 hPa 0,0 l/m 0,0 km/h (0 Bft) NO 36 0 min 0,000 mm 1,0 UV-I 290 W/m 11,4 C 21,4 C 0,0 km/h (0 Bft) 0,00 %
21.08.2015 16:12 21,4 C 56 % 1023,9 hPa 0,0 l/m 0,0 km/h (0 Bft) NO 40 5 min 0,000 mm 1,0 UV-I 336 W/m 12,3 C 21,4 C 0,0 km/h (0 Bft) 0,00 %
21.08.2015 16:17 21,5 C 56 % 1024,0 hPa 0,0 l/m 1,4 km/h (1 Bft) NW 305 5 min 0,000 mm 2,0 UV-I 460 W/m 12,3 C 21,5 C 4,0 km/h (1 Bft) 0,00 %
21.08.2015 16:22 21,7 C 55 % 1023,8 hPa 0,0 l/m 0,0 km/h (0 Bft) O 94 5 min 0,000 mm 2,0 UV-I 554 W/m 12,3 C 21,7 C 0,0 km/h (0 Bft) 0,00 %
21.08.2015 16:27 21,9 C 53 % 1023,9 hPa 0,0 l/m 0,0 km/h (0 Bft) NO 36 5 min 0,000 mm 2,0 UV-I 396 W/m 11,9 C 21,9 C 0,0 km/h (0 Bft) 0,00 %
21.08.2015 16:32 22,2 C 52 % 1023,9 hPa 0,0 l/m 2,2 km/h (1 Bft) W-NW 287 5 min 0,000 mm 1,0 UV-I 378 W/m 11,9 C 22,2 C 4,0 km/h (1 Bft) 0,00 %
21.08.2015 16:37 22,1 C 52 % 1023,8 hPa 0,0 l/m 0,0 km/h (0 Bft) N 354 5 min 0,000 mm 1,0 UV-I 340 W/m 11,8 C 22,1 C 0,0 km/h (0 Bft) 0,00 %
21.08.2015 16:42 21,8 C 55 % 1023,9 hPa 0,0 l/m 0,0 km/h (0 Bft) N-NW 345 5 min 0,000 mm 1,0 UV-I 346 W/m 12,4 C 21,8 C 0,0 km/h (0 Bft) 0,00 %
21.08.2015 16:47 21,6 C 55 % 1023,8 hPa 0,0 l/m 0,0 km/h (0 Bft) O-NO 67 5 min 0,000 mm 1,0 UV-I 338 W/m 12,2 C 21,6 C 0,0 km/h (0 Bft) 0,00 %
21.08.2015 16:52 21,4 C 57 % 1024,0 hPa 0,0 l/m 0,0 km/h (0 Bft) NO 45 5 min 0,000 mm 1,0 UV-I 316 W/m 12,5 C 21,4 C 0,0 km/h (0 Bft) 0,00 %
21.08.2015 16:57 21,4 C 58 % 1023,8 hPa 0,0 l/m 0,0 km/h (0 Bft) O-NO 60 5 min 0,000 mm 1,0 UV-I 298 W/m 12,8 C 21,4 C 0,0 km/h (0 Bft) 0,00 %
21.08.2015 17:02 21,6 C 57 % 1023,9 hPa 0,0 l/m 0,0 km/h (0 Bft) NO 37 5 min 0,000 mm 1,0 UV-I 290 W/m 12,7 C 21,6 C 0,0 km/h (0 Bft) 0,00 %
21.08.2015 17:07 21,7 C 54 % 1023,7 hPa 0,0 l/m 0,0 km/h (0 Bft) O-NO 61 0 min 0,000 mm 1,0 UV-I 260 W/m 12,0 C 21,7 C 0,0 km/h (0 Bft) 0,00 %
21.08.2015 17:12 21,6 C 56 % 1023,8 hPa 0,0 l/m 0,0 km/h (0 Bft) N-NO 26 0 min 0,000 mm 1,0 UV-I 214 W/m 12,4 C 21,6 C 0,0 km/h (0 Bft) 0,00 %
21.08.2015 17:17 21,5 C 57 % 1023,9 hPa 0,0 l/m 0,0 km/h (0 Bft) NO 46 0 min 0,000 mm 1,0 UV-I 204 W/m 12,6 C 21,5 C 0,0 km/h (0 Bft) 0,00 %
21.08.2015 17:22 21,3 C 57 % 1023,7 hPa 0,0 l/m 0,0 km/h (0 Bft) NO 43 0 min 0,000 mm 1,0 UV-I 212 W/m 12,4 C 21,3 C 0,0 km/h (0 Bft) 0,00 %
21.08.2015 17:27 21,1 C 59 % 1023,7 hPa 0,0 l/m 0,0 km/h (0 Bft) NO 39 0 min 0,000 mm 1,0 UV-I 202 W/m 12,8 C 21,1 C 0,0 km/h (0 Bft) 0,00 %
21.08.2015 17:32 20,8 C 59 % 1023,6 hPa 0,0 l/m 0,0 km/h (0 Bft) N 352 0 min 0,000 mm 1,0 UV-I 184 W/m 12,5 C 20,8 C 0,0 km/h (0 Bft) 0,00 %
21.08.2015 17:37 20,8 C 60 % 1023,5 hPa 0,0 l/m 0,0 km/h (0 Bft) NO 42 0 min 0,000 mm 1,0 UV-I 172 W/m 12,7 C 20,8 C 0,0 km/h (0 Bft) 0,00 %
21.08.2015 17:42 20,6 C 61 % 1023,6 hPa 0,0 l/m 0,0 km/h (0 Bft) N-NO 31 0 min 0,000 mm 1,0 UV-I 164 W/m 12,8 C 20,6 C 0,0 km/h (0 Bft) 0,00 %
21.08.2015 17:47 20,4 C 62 % 1023,7 hPa 0,0 l/m 0,0 km/h (0 Bft) O-NO 74 0 min 0,000 mm 1,0 UV-I 154 W/m 12,9 C 20,4 C 0,0 km/h (0 Bft) 0,00 %
21.08.2015 17:52 20,1 C 63 % 1023,5 hPa 0,0 l/m 0,0 km/h (0 Bft) N-NO 26 0 min 0,000 mm 1,0 UV-I 146 W/m 12,8 C 20,1 C 0,0 km/h (0 Bft) 0,00 %
21.08.2015 17:57 19,8 C 64 % 1023,6 hPa 0,0 l/m 0,0 km/h (0 Bft) NO 43 0 min 0,000 mm 1,0 UV-I 141 W/m 12,8 C 19,8 C 0,0 km/h (0 Bft) 0,00 %
21.08.2015 18:02 19,7 C 64 % 1023,5 hPa 0,0 l/m 0,0 km/h (0 Bft) NO 47 0 min 0,000 mm 1,0 UV-I 138 W/m 12,7 C 19,7 C 0,0 km/h (0 Bft) 0,00 %
21.08.2015 18:07 19,6 C 63 % 1023,5 hPa 0,0 l/m 0,0 km/h (0 Bft) N 9 0 min 0,000 mm 1,0 UV-I 134 W/m 12,4 C 19,6 C 0,0 km/h (0 Bft) 0,00 %
21.08.2015 18:12 19,5 C 64 % 1023,4 hPa 0,0 l/m 0,0 km/h (0 Bft) O-NO 60 0 min 0,000 mm 1,0 UV-I 126 W/m 12,5 C 19,5 C 0,0 km/h (0 Bft) 0,00 %
21.08.2015 18:17 19,4 C 64 % 1023,3 hPa 0,0 l/m 0,0 km/h (0 Bft) NO 36 0 min 0,000 mm 1,0 UV-I 112 W/m 12,4 C 19,4 C 0,0 km/h (0 Bft) 0,00 %
21.08.2015 18:22 19,4 C 63 % 1023,4 hPa 0,0 l/m 0,0 km/h (0 Bft) N-NW 335 0 min 0,000 mm 0,0 UV-I 104 W/m 12,2 C 19,4 C 0,0 km/h (0 Bft) 0,00 %
21.08.2015 18:27 19,4 C 64 % 1023,5 hPa 0,0 l/m 0,0 km/h (0 Bft) NO 42 0 min 0,000 mm 0,0 UV-I 99 W/m 12,4 C 19,4 C 0,0 km/h (0 Bft) 0,00 %
21.08.2015 18:32 19,3 C 63 % 1023,4 hPa 0,0 l/m 0,0 km/h (0 Bft) NO 44 0 min 0,000 mm 0,0 UV-I 93 W/m 12,1 C 19,3 C 0,0 km/h (0 Bft) 0,00 %
21.08.2015 18:37 19,3 C 64 % 1023,3 hPa 0,0 l/m 0,0 km/h (0 Bft) N-NW 337 0 min 0,000 mm 0,0 UV-I 86 W/m 12,3 C 19,3 C 0,0 km/h (0 Bft) 0,00 %
21.08.2015 18:42 19,2 C 65 % 1023,2 hPa 0,0 l/m 0,0 km/h (0 Bft) NO 46 0 min 0,000 mm 0,0 UV-I 79 W/m 12,5 C 19,2 C 0,0 km/h (0 Bft) 0,00 %
21.08.2015 18:47 19,1 C 64 % 1023,4 hPa 0,0 l/m 0,0 km/h (0 Bft) NO 47 0 min 0,000 mm 0,0 UV-I 69 W/m 12,1 C 19,1 C 0,0 km/h (0 Bft) 0,00 %
21.08.2015 18:52 19,0 C 63 % 1023,3 hPa 0,0 l/m 0,0 km/h (0 Bft) NO 54 0 min 0,000 mm 0,0 UV-I 67 W/m 11,8 C 19,0 C 0,0 km/h (0 Bft) 0,00 %
21.08.2015 18:57 18,9 C 65 % 1023,3 hPa 0,0 l/m 0,0 km/h (0 Bft) NO 35 0 min 0,000 mm 0,0 UV-I 70 W/m 12,2 C 18,9 C 0,0 km/h (0 Bft) 0,00 %
21.08.2015 19:02 18,9 C 66 % 1023,3 hPa 0,0 l/m 0,0 km/h (0 Bft) NO 40 5 min 0,000 mm 0,0 UV-I 162 W/m 12,4 C 18,9 C 0,0 km/h (0 Bft) 0,00 %
21.08.2015 19:07 18,9 C 65 % 1023,4 hPa 0,0 l/m 0,0 km/h (0 Bft) NO 47 5 min 0,000 mm 0,0 UV-I 93 W/m 12,2 C 18,9 C 0,0 km/h (0 Bft) 0,00 %
21.08.2015 19:12 18,9 C 64 % 1023,3 hPa 0,0 l/m 0,0 km/h (0 Bft) N-NW 333 5 min 0,000 mm 0,0 UV-I 123 W/m 11,9 C 18,9 C 0,0 km/h (0 Bft) 0,00 %
21.08.2015 19:17 19,0 C 63 % 1023,4 hPa 0,0 l/m 0,0 km/h (0 Bft) NO 45 5 min 0,000 mm 0,0 UV-I 85 W/m 11,8 C 19,0 C 0,0 km/h (0 Bft) 0,00 %
21.08.2015 19:22 19,1 C 63 % 1023,4 hPa 0,0 l/m 0,0 km/h (0 Bft) N-NO 22 0 min 0,000 mm 0,0 UV-I 54 W/m 11,9 C 19,1 C 0,0 km/h (0 Bft) 0,00 %
21.08.2015 19:27 19,1 C 64 % 1023,4 hPa 0,0 l/m 0,0 km/h (0 Bft) NO 46 0 min 0,000 mm 0,0 UV-I 42 W/m 12,1 C 19,1 C 0,0 km/h (0 Bft) 0,00 %
21.08.2015 19:32 19,0 C 65 % 1023,3 hPa 0,0 l/m 0,0 km/h (0 Bft) NO 44 0 min 0,000 mm 0,0 UV-I 29 W/m 12,3 C 19,0 C 0,0 km/h (0 Bft) 0,00 %
21.08.2015 19:37 18,8 C 67 % 1023,4 hPa 0,0 l/m 0,0 km/h (0 Bft) NO 43 0 min 0,000 mm 0,0 UV-I 20 W/m 12,5 C 18,8 C 0,0 km/h (0 Bft) 0,00 %
21.08.2015 19:42 18,6 C 67 % 1023,4 hPa 0,0 l/m 0,0 km/h (0 Bft) NO 45 0 min 0,000 mm 0,0 UV-I 10 W/m 12,3 C 18,6 C 0,0 km/h (0 Bft) 0,00 %
21.08.2015 19:47 18,4 C 67 % 1023,3 hPa 0,0 l/m 0,0 km/h (0 Bft) NO 44 0 min 0,000 mm 0,0 UV-I 6 W/m 12,2 C 18,4 C 0,0 km/h (0 Bft) 0,00 %
21.08.2015 19:52 18,2 C 68 % 1023,5 hPa 0,0 l/m 0,0 km/h (0 Bft) NO 46 0 min 0,000 mm 0,0 UV-I 2 W/m 12,2 C 18,2 C 0,0 km/h (0 Bft) 0,00 %
21.08.2015 19:57 18,0 C 71 % 1023,4 hPa 0,0 l/m 0,0 km/h (0 Bft) NO 49 0 min 0,000 mm 0,0 UV-I 0 W/m 12,7 C 18,0 C 0,0 km/h (0 Bft) 0,00 %
21.08.2015 20:02 17,8 C 72 % 1023,4 hPa 0,0 l/m 0,0 km/h (0 Bft) NO 44 0 min 0,000 mm 0,0 UV-I 0 W/m 12,7 C 17,8 C 0,0 km/h (0 Bft) 0,00 %
21.08.2015 20:07 17,8 C 72 % 1023,5 hPa 0,0 l/m 0,0 km/h (0 Bft) NO 48 0 min 0,000 mm 0,0 UV-I 0 W/m 12,7 C 17,8 C 0,0 km/h (0 Bft) 0,00 %
21.08.2015 20:12 17,6 C 73 % 1023,5 hPa 0,0 l/m 0,0 km/h (0 Bft) O-NO 62 0 min 0,000 mm 0,0 UV-I 0 W/m 12,7 C 17,6 C 0,0 km/h (0 Bft) 0,00 %
21.08.2015 20:17 17,4 C 74 % 1023,6 hPa 0,0 l/m 0,0 km/h (0 Bft) NO 50 0 min 0,000 mm 0,0 UV-I 0 W/m 12,7 C 17,4 C 0,0 km/h (0 Bft) 0,00 %
21.08.2015 20:22 17,3 C 75 % 1023,4 hPa 0,0 l/m 0,0 km/h (0 Bft) NO 50 0 min 0,000 mm 0,0 UV-I 0 W/m 12,8 C 17,3 C 0,0 km/h (0 Bft) 0,00 %
21.08.2015 20:27 17,1 C 76 % 1023,7 hPa 0,0 l/m 0,0 km/h (0 Bft) NO 47 0 min 0,000 mm 0,0 UV-I 0 W/m 12,8 C 17,1 C 0,0 km/h (0 Bft) 0,00 %
21.08.2015 20:32 16,9 C 77 % 1023,7 hPa 0,0 l/m 0,0 km/h (0 Bft) NO 47 0 min 0,000 mm 0,0 UV-I 0 W/m 12,8 C 16,9 C 0,0 km/h (0 Bft) 0,00 %
21.08.2015 20:37 16,8 C 78 % 1023,6 hPa 0,0 l/m 0,0 km/h (0 Bft) NO 49 0 min 0,000 mm 0,0 UV-I 0 W/m 12,9 C 16,8 C 0,0 km/h (0 Bft) 0,00 %
21.08.2015 20:42 16,7 C 78 % 1023,6 hPa 0,0 l/m 0,0 km/h (0 Bft) NO 49 0 min 0,000 mm 0,0 UV-I 0 W/m 12,8 C 16,7 C 0,0 km/h (0 Bft) 0,00 %
21.08.2015 20:47 16,6 C 79 % 1023,6 hPa 0,0 l/m 0,0 km/h (0 Bft) NO 49 0 min 0,000 mm 0,0 UV-I 0 W/m 12,9 C 16,6 C 0,0 km/h (0 Bft) 0,00 %
21.08.2015 20:52 16,5 C 80 % 1023,7 hPa 0,0 l/m 0,0 km/h (0 Bft) NO 49 0 min 0,000 mm 0,0 UV-I 0 W/m 13,0 C 16,5 C 0,0 km/h (0 Bft) 0,00 %
21.08.2015 20:57 16,4 C 81 % 1023,7 hPa 0,0 l/m 0,0 km/h (0 Bft) NO 49 0 min 0,000 mm 0,0 UV-I 0 W/m 13,1 C 16,4 C 0,0 km/h (0 Bft) 0,00 %
21.08.2015 21:02 16,3 C 82 % 1023,6 hPa 0,0 l/m 0,0 km/h (0 Bft) NO 49 0 min 0,000 mm 0,0 UV-I 0 W/m 13,2 C 16,3 C 0,0 km/h (0 Bft) 0,00 %
21.08.2015 21:07 16,1 C 82 % 1023,8 hPa 0,0 l/m 0,0 km/h (0 Bft) NO 49 0 min 0,000 mm 0,0 UV-I 0 W/m 13,0 C 16,1 C 0,0 km/h (0 Bft) 0,00 %
21.08.2015 21:12 16,0 C 82 % 1023,9 hPa 0,0 l/m 0,0 km/h (0 Bft) NO 49 0 min 0,000 mm 0,0 UV-I 0 W/m 12,9 C 16,0 C 0,0 km/h (0 Bft) 0,00 %
21.08.2015 21:17 15,9 C 82 % 1023,9 hPa 0,0 l/m 0,0 km/h (0 Bft) NO 49 0 min 0,000 mm 0,0 UV-I 0 W/m 12,8 C 15,9 C 0,0 km/h (0 Bft) 0,00 %
21.08.2015 21:22 15,8 C 82 % 1023,6 hPa 0,0 l/m 0,0 km/h (0 Bft) NO 49 0 min 0,000 mm 0,0 UV-I 0 W/m 12,7 C 15,8 C 0,0 km/h (0 Bft) 0,00 %
21.08.2015 21:27 15,7 C 83 % 1023,8 hPa 0,0 l/m 0,0 km/h (0 Bft) NO 49 0 min 0,000 mm 0,0 UV-I 0 W/m 12,8 C 15,7 C 0,0 km/h (0 Bft) 0,00 %
21.08.2015 21:32 15,6 C 84 % 1023,6 hPa 0,0 l/m 0,0 km/h (0 Bft) NO 49 0 min 0,000 mm 0,0 UV-I 0 W/m 12,9 C 15,6 C 0,0 km/h (0 Bft) 0,00 %
21.08.2015 21:37 15,5 C 85 % 1023,5 hPa 0,0 l/m 0,0 km/h (0 Bft) NO 55 0 min 0,000 mm 0,0 UV-I 0 W/m 13,0 C 15,5 C 0,0 km/h (0 Bft) 0,00 %
21.08.2015 21:42 15,5 C 86 % 1023,7 hPa 0,0 l/m 0,0 km/h (0 Bft) NO 55 0 min 0,000 mm 0,0 UV-I 0 W/m 13,2 C 15,5 C 0,0 km/h (0 Bft) 0,00 %
21.08.2015 21:47 15,4 C 86 % 1023,6 hPa 0,0 l/m 0,0 km/h (0 Bft) NO 55 0 min 0,000 mm 0,0 UV-I 0 W/m 13,1 C 15,4 C 0,0 km/h (0 Bft) 0,00 %
21.08.2015 21:52 15,2 C 87 % 1023,6 hPa 0,0 l/m 0,0 km/h (0 Bft) NO 55 0 min 0,000 mm 0,0 UV-I 0 W/m 13,0 C 15,2 C 0,0 km/h (0 Bft) 0,00 %
21.08.2015 21:57 15,1 C 87 % 1023,7 hPa 0,0 l/m 0,0 km/h (0 Bft) NO 55 0 min 0,000 mm 0,0 UV-I 0 W/m 13,0 C 15,1 C 0,0 km/h (0 Bft) 0,00 %
21.08.2015 22:02 14,9 C 88 % 1023,8 hPa 0,0 l/m 0,0 km/h (0 Bft) NO 55 0 min 0,000 mm 0,0 UV-I 0 W/m 12,9 C 14,9 C 0,0 km/h (0 Bft) 0,00 %
21.08.2015 22:07 14,8 C 88 % 1023,7 hPa 0,0 l/m 0,0 km/h (0 Bft) NO 55 0 min 0,000 mm 0,0 UV-I 0 W/m 12,8 C 14,8 C 0,0 km/h (0 Bft) 0,00 %
21.08.2015 22:12 14,6 C 89 % 1023,8 hPa 0,0 l/m 0,0 km/h (0 Bft) NO 55 0 min 0,000 mm 0,0 UV-I 0 W/m 12,8 C 14,6 C 0,0 km/h (0 Bft) 0,00 %
21.08.2015 22:17 14,5 C 89 % 1023,7 hPa 0,0 l/m 0,0 km/h (0 Bft) NO 55 0 min 0,000 mm 0,0 UV-I 0 W/m 12,7 C 14,5 C 0,0 km/h (0 Bft) 0,00 %
21.08.2015 22:22 14,4 C 90 % 1023,7 hPa 0,0 l/m 0,0 km/h (0 Bft) NO 55 0 min 0,000 mm 0,0 UV-I 0 W/m 12,8 C 14,4 C 0,0 km/h (0 Bft) 0,00 %
21.08.2015 22:27 14,4 C 90 % 1023,7 hPa 0,0 l/m 0,0 km/h (0 Bft) NO 55 0 min 0,000 mm 0,0 UV-I 0 W/m 12,8 C 14,4 C 0,0 km/h (0 Bft) 0,00 %
21.08.2015 22:32 14,3 C 91 % 1023,7 hPa 0,0 l/m 0,0 km/h (0 Bft) NO 47 0 min 0,000 mm 0,0 UV-I 0 W/m 12,8 C 14,3 C 0,0 km/h (0 Bft) 0,00 %
21.08.2015 22:37 14,3 C 91 % 1023,6 hPa 0,0 l/m 0,0 km/h (0 Bft) NO 42 0 min 0,000 mm 0,0 UV-I 0 W/m 12,8 C 14,3 C 0,0 km/h (0 Bft) 0,00 %
21.08.2015 22:42 14,3 C 91 % 1023,6 hPa 0,0 l/m 0,0 km/h (0 Bft) NO 34 0 min 0,000 mm 0,0 UV-I 0 W/m 12,8 C 14,3 C 0,0 km/h (0 Bft) 0,00 %
21.08.2015 22:47 14,3 C 91 % 1023,7 hPa 0,0 l/m 0,0 km/h (0 Bft) NO 45 0 min 0,000 mm 0,0 UV-I 0 W/m 12,8 C 14,3 C 0,0 km/h (0 Bft) 0,00 %
21.08.2015 22:52 14,3 C 90 % 1023,5 hPa 0,0 l/m 0,0 km/h (0 Bft) NO 40 0 min 0,000 mm 0,0 UV-I 0 W/m 12,7 C 14,3 C 0,0 km/h (0 Bft) 0,00 %
21.08.2015 22:57 14,3 C 90 % 1023,6 hPa 0,0 l/m 0,0 km/h (0 Bft) NO 34 0 min 0,000 mm 0,0 UV-I 0 W/m 12,7 C 14,3 C 0,0 km/h (0 Bft) 0,00 %
21.08.2015 23:02 14,3 C 90 % 1023,5 hPa 0,0 l/m 0,0 km/h (0 Bft) NO 34 0 min 0,000 mm 0,0 UV-I 0 W/m 12,7 C 14,3 C 0,0 km/h (0 Bft) 0,00 %
21.08.2015 23:07 14,3 C 90 % 1023,6 hPa 0,0 l/m 0,0 km/h (0 Bft) NO 45 0 min 0,000 mm 0,0 UV-I 0 W/m 12,7 C 14,3 C 0,0 km/h (0 Bft) 0,00 %
21.08.2015 23:12 14,3 C 90 % 1023,5 hPa 0,0 l/m 0,0 km/h (0 Bft) NO 34 0 min 0,000 mm 0,0 UV-I 0 W/m 12,7 C 14,3 C 0,0 km/h (0 Bft) 0,00 %
21.08.2015 23:17 14,3 C 90 % 1023,6 hPa 0,0 l/m 0,0 km/h (0 Bft) NO 45 0 min 0,000 mm 0,0 UV-I 0 W/m 12,7 C 14,3 C 0,0 km/h (0 Bft) 0,00 %
21.08.2015 23:22 14,3 C 90 % 1023,6 hPa 0,0 l/m 0,0 km/h (0 Bft) N 352 0 min 0,000 mm 0,0 UV-I 0 W/m 12,7 C 14,3 C 0,0 km/h (0 Bft) 0,00 %
21.08.2015 23:27 14,3 C 90 % 1023,4 hPa 0,0 l/m 0,0 km/h (0 Bft) NO 44 0 min 0,000 mm 0,0 UV-I 0 W/m 12,7 C 14,3 C 0,0 km/h (0 Bft) 0,00 %
21.08.2015 23:32 14,2 C 90 % 1023,4 hPa 0,0 l/m 0,0 km/h (0 Bft) O-NO 58 0 min 0,000 mm 0,0 UV-I 0 W/m 12,6 C 14,2 C 0,0 km/h (0 Bft) 0,00 %
21.08.2015 23:37 14,2 C 90 % 1023,3 hPa 0,0 l/m 0,0 km/h (0 Bft) O-NO 57 0 min 0,000 mm 0,0 UV-I 0 W/m 12,6 C 14,2 C 0,0 km/h (0 Bft) 0,00 %
21.08.2015 23:42 14,1 C 90 % 1023,3 hPa 0,0 l/m 0,0 km/h (0 Bft) NO 42 0 min 0,000 mm 0,0 UV-I 0 W/m 12,5 C 14,1 C 0,0 km/h (0 Bft) 0,00 %
21.08.2015 23:47 14,0 C 90 % 1023,6 hPa 0,0 l/m 0,0 km/h (0 Bft) N-NW 348 0 min 0,000 mm 0,0 UV-I 0 W/m 12,4 C 14,0 C 0,0 km/h (0 Bft) 0,00 %
21.08.2015 23:52 14,0 C 90 % 1023,3 hPa 0,0 l/m 0,0 km/h (0 Bft) N-NW 348 0 min 0,000 mm 0,0 UV-I 0 W/m 12,4 C 14,0 C 0,0 km/h (0 Bft) 0,00 %
21.08.2015 23:57 13,9 C 91 % 1023,3 hPa 0,0 l/m 0,0 km/h (0 Bft) NO 47 0 min 0,000 mm 0,0 UV-I 0 W/m 12,5 C 13,9 C 0,0 km/h (0 Bft) 0,00 %
_ Min-Zeit 03:56 15:22 18:42 - 00:06 - - - - - - 15:22 03:56 00:06 00:01
Minimum _ 13,2 C 50 % 1023,2 hPa - 0,0 km/h (0 Bft) - - - - - - 10,5 C 13,2 C 0,0 km/h (0 Bft) 0,00 %
_ Max-Zeit 16:32 00:01 10:27 00:01 10:12 - - 09:42 00:01 11:47 12:07 14:22 16:32 02:41 00:01
Maximum _ 22,2 C 99 % 1025,5 hPa 0,0 l/m 4,7 km/h
W-NW (1 Bft)
- - 5 min 0,000 mm 3,0 UV-I 742 W/m 13,7 C 22,2 C 7,9 km/h
W-NW (2 Bft)
0,00 %
Durchschnitt _ 16,6 C 80 % 1024,4 hPa #0,0 l/m 0,2 km/h (0 Bft) W-SW - #2:15 h #0,000 mm 1,4 UV-I 232 W/m 12,8 C 16,6 C 0,5 km/h (0 Bft) 0,00 %